TFS1215 KMDW-KDCA

Flight info

Callsign TFS1215
Flight time 1h 15m
Altitude 39000
Route LEWKE GIJ OTENS ANEWA JERRI NUSMM BUCKO FRDMM6
Aircraft A320/M-SDE3FGHIRWY/LB1

Departure

Time 2026-05-06 01:36
Airport Chicago Midway International Airport (KMDW)

Arrival

Time 2026-05-06 02:51
Airport Ronald Reagan Washington National Airport (KDCA)
Time Latitude Longitude Altitude Speed Heading
2026-05-06 01:21 41.78937 -87.74228 629 ft 0 kts 108°
2026-05-06 01:24 41.78944 -87.74254 632 ft 4 kts 109°
2026-05-06 01:24 41.78953 -87.74289 634 ft 4 kts 110°
2026-05-06 01:24 41.78956 -87.74299 632 ft 0 kts 111°
2026-05-06 01:24 41.78965 -87.74329 629 ft 3 kts 113°
2026-05-06 01:25 41.78976 -87.74362 636 ft 3 kts 119°
2026-05-06 01:25 41.78991 -87.74390 633 ft 3 kts 147°
2026-05-06 01:25 41.79005 -87.74397 632 ft 1 kts 222°
2026-05-06 01:25 41.79005 -87.74396 632 ft 0 kts 223°
2026-05-06 01:32 41.78999 -87.74404 631 ft 8 kts 223°
2026-05-06 01:32 41.78911 -87.74513 632 ft 20 kts 225°
2026-05-06 01:32 41.78806 -87.74647 630 ft 22 kts 223°
2026-05-06 01:32 41.78700 -87.74776 629 ft 16 kts 211°
2026-05-06 01:33 41.78595 -87.74764 629 ft 15 kts 147°
2026-05-06 01:33 41.78548 -87.74701 629 ft 14 kts 133°
2026-05-06 01:33 41.78474 -87.74596 629 ft 18 kts 133°
2026-05-06 01:33 41.78390 -87.74478 632 ft 17 kts 133°
2026-05-06 01:34 41.78302 -87.74391 631 ft 15 kts 157°
2026-05-06 01:34 41.78213 -87.74329 629 ft 14 kts 147°
2026-05-06 01:34 41.78126 -87.74307 634 ft 12 kts 179°
2026-05-06 01:34 41.78044 -87.74303 629 ft 11 kts 178°
2026-05-06 01:35 41.77974 -87.74328 630 ft 11 kts 223°
2026-05-06 01:35 41.77943 -87.74388 628 ft 5 kts 267°
2026-05-06 01:35 41.77957 -87.74417 636 ft 3 kts 311°
2026-05-06 01:35 41.78030 -87.74519 627 ft 45 kts 314°
2026-05-06 01:36 41.78419 -87.75070 630 ft 114 kts 313°
2026-05-06 01:36 41.79063 -87.75972 960 ft 138 kts 314°
2026-05-06 01:36 41.79721 -87.76880 1736 ft 133 kts 314°
2026-05-06 01:36 41.80511 -87.77509 2343 ft 143 kts 352°
2026-05-06 01:37 41.81522 -87.77048 2704 ft 175 kts 40°
2026-05-06 01:37 41.82025 -87.75443 3037 ft 206 kts 82°
2026-05-06 01:37 41.81987 -87.73470 3489 ft 220 kts 93°
2026-05-06 01:37 41.81783 -87.71308 3841 ft 246 kts 96°
2026-05-06 01:38 41.81522 -87.68921 4399 ft 268 kts 97°
2026-05-06 01:38 41.81253 -87.66410 5311 ft 276 kts 96°
2026-05-06 01:38 41.80996 -87.63844 6332 ft 279 kts 95°
2026-05-06 01:38 41.80755 -87.61232 7210 ft 286 kts 96°
2026-05-06 01:39 41.80521 -87.58542 8036 ft 296 kts 97°
2026-05-06 01:39 41.80290 -87.55760 8857 ft 305 kts 98°
2026-05-06 01:39 41.80057 -87.52888 9677 ft 315 kts 99°
2026-05-06 01:39 41.79816 -87.49918 10292 ft 330 kts 99°
2026-05-06 01:40 41.79556 -87.46753 10656 ft 352 kts 98°
2026-05-06 01:40 41.79284 -87.43432 11333 ft 363 kts 98°
2026-05-06 01:40 41.79012 -87.40049 12132 ft 369 kts 98°
2026-05-06 01:40 41.78734 -87.36607 12931 ft 374 kts 98°
2026-05-06 01:41 41.78446 -87.33111 13708 ft 380 kts 98°
2026-05-06 01:41 41.78151 -87.29572 14404 ft 384 kts 98°
2026-05-06 01:41 41.77850 -87.25992 15095 ft 389 kts 99°
2026-05-06 01:41 41.77549 -87.22403 15958 ft 384 kts 99°
2026-05-06 01:42 41.77247 -87.18808 16497 ft 395 kts 99°
2026-05-06 01:42 41.76933 -87.15112 17086 ft 403 kts 100°
2026-05-06 01:42 41.76615 -87.11365 17745 ft 408 kts 100°
2026-05-06 01:42 41.76299 -87.07561 18381 ft 413 kts 99°
2026-05-06 01:43 41.76219 -87.03676 18925 ft 421 kts 92°
2026-05-06 01:43 41.76276 -86.99730 19480 ft 426 kts 92°
2026-05-06 01:43 41.76327 -86.95731 20029 ft 431 kts 92°
2026-05-06 01:43 41.76371 -86.91696 20552 ft 436 kts 92°
2026-05-06 01:44 41.76410 -86.87608 21102 ft 441 kts 92°
2026-05-06 01:44 41.76448 -86.83478 21619 ft 446 kts 92°
2026-05-06 01:44 41.76489 -86.79296 22143 ft 451 kts 92°
2026-05-06 01:44 41.76531 -86.75070 22655 ft 456 kts 92°
2026-05-06 01:45 41.76570 -86.70805 23148 ft 461 kts 92°
2026-05-06 01:45 41.76607 -86.66479 23618 ft 466 kts 92°
2026-05-06 01:45 41.76643 -86.62189 24031 ft 470 kts 92°
2026-05-06 01:45 41.76678 -86.57792 24462 ft 473 kts 92°
2026-05-06 01:46 41.76712 -86.53367 24892 ft 476 kts 92°
2026-05-06 01:46 41.76747 -86.48914 25330 ft 479 kts 92°
2026-05-06 01:46 41.76783 -86.44432 25750 ft 483 kts 92°
2026-05-06 01:46 41.76814 -86.39920 26162 ft 486 kts 92°
2026-05-06 01:47 41.76842 -86.35375 26572 ft 490 kts 92°
2026-05-06 01:47 41.76801 -86.30805 26973 ft 491 kts 98°
2026-05-06 01:47 41.76527 -86.26243 27370 ft 493 kts 99°
2026-05-06 01:47 41.76245 -86.21652 27764 ft 497 kts 99°
2026-05-06 01:48 41.75961 -86.17027 28138 ft 500 kts 98°
2026-05-06 01:48 41.75676 -86.12371 28542 ft 503 kts 98°
2026-05-06 01:48 41.75391 -86.07689 28924 ft 506 kts 98°
2026-05-06 01:48 41.75101 -86.02974 29295 ft 510 kts 99°
2026-05-06 01:49 41.74803 -85.98219 29663 ft 513 kts 99°
2026-05-06 01:49 41.74503 -85.93453 30016 ft 516 kts 99°
2026-05-06 01:49 41.74199 -85.88645 30301 ft 520 kts 98°
2026-05-06 01:49 41.73891 -85.83797 30552 ft 524 kts 98°
2026-05-06 01:50 41.73577 -85.78898 30802 ft 529 kts 98°
2026-05-06 01:50 41.73258 -85.73967 31050 ft 533 kts 98°
2026-05-06 01:50 41.72934 -85.69014 31284 ft 537 kts 98°
2026-05-06 01:50 41.72606 -85.64015 31519 ft 541 kts 98°
2026-05-06 01:51 41.72302 -85.59400 31803 ft 543 kts 97°
2026-05-06 01:51 41.71968 -85.54363 32123 ft 544 kts 97°
2026-05-06 01:51 41.71631 -85.49293 32430 ft 547 kts 97°
2026-05-06 01:51 41.71292 -85.44216 32733 ft 549 kts 97°
2026-05-06 01:52 41.70949 -85.39118 33041 ft 551 kts 96°
2026-05-06 01:52 41.70602 -85.34017 33390 ft 552 kts 96°
2026-05-06 01:52 41.70249 -85.28897 33709 ft 554 kts 96°
2026-05-06 01:52 41.69893 -85.23748 33995 ft 556 kts 96°
2026-05-06 01:53 41.69535 -85.18589 34285 ft 557 kts 96°
2026-05-06 01:53 41.69175 -85.13423 34611 ft 557 kts 96°
2026-05-06 01:53 41.68815 -85.08277 34935 ft 557 kts 96°
2026-05-06 01:53 41.68451 -85.03122 35262 ft 556 kts 96°
2026-05-06 01:54 41.66946 -84.82368 36531 ft 553 kts 95°
2026-05-06 01:55 41.66573 -84.77285 36811 ft 553 kts 95°
2026-05-06 01:55 41.66262 -84.72158 37089 ft 553 kts 93°
2026-05-06 01:55 41.66033 -84.67027 37362 ft 552 kts 92°
2026-05-06 01:55 41.65857 -84.61883 37649 ft 552 kts 91°
2026-05-06 01:56 41.65700 -84.56810 37923 ft 551 kts 91°
2026-05-06 01:56 41.65320 -84.46051 38469 ft 551 kts 91°
2026-05-06 01:56 41.65083 -84.40593 38711 ft 550 kts 92°
2026-05-06 01:57 41.64922 -84.37144 38831 ft 550 kts 92°
2026-05-06 01:57 41.64677 -84.32042 38896 ft 550 kts 92°
2026-05-06 01:57 41.64177 -84.21843 38898 ft 549 kts 92°
2026-05-06 01:58 41.63685 -84.11677 38897 ft 548 kts 92°
2026-05-06 01:58 41.63207 -84.01583 38897 ft 548 kts 92°
2026-05-06 01:59 41.62729 -83.91418 38897 ft 548 kts 92°
2026-05-06 01:59 41.62227 -83.81199 38901 ft 548 kts 92°
2026-05-06 02:00 41.61711 -83.71033 38902 ft 548 kts 92°
2026-05-06 02:00 41.61049 -83.60958 38895 ft 549 kts 100°
2026-05-06 02:01 41.59066 -83.51135 38876 ft 548 kts 108°
2026-05-06 02:01 41.56877 -83.41393 38911 ft 547 kts 108°
2026-05-06 02:02 41.54702 -83.31670 38923 ft 546 kts 108°
2026-05-06 02:02 41.52524 -83.21967 38920 ft 545 kts 108°
2026-05-06 02:03 41.50327 -83.12285 38903 ft 545 kts 108°
2026-05-06 02:03 41.48121 -83.02625 38921 ft 544 kts 108°
2026-05-06 02:04 41.45912 -82.92972 38925 ft 544 kts 108°
2026-05-06 02:04 41.43695 -82.83316 38922 ft 544 kts 108°
2026-05-06 02:05 41.41480 -82.73685 38911 ft 544 kts 108°
2026-05-06 02:05 41.39023 -82.64251 38914 ft 540 kts 119°
2026-05-06 02:06 41.35014 -82.55939 38912 ft 528 kts 137°
2026-05-06 02:06 41.29984 -82.48934 38888 ft 524 kts 141°
2026-05-06 02:07 41.24890 -82.42007 38896 ft 524 kts 141°
2026-05-06 02:07 41.19793 -82.35101 38899 ft 524 kts 141°
2026-05-06 02:08 41.14688 -82.28196 38904 ft 524 kts 141°
2026-05-06 02:08 41.09595 -82.21322 38905 ft 524 kts 141°
2026-05-06 02:09 41.04478 -82.14439 38867 ft 524 kts 141°
2026-05-06 02:09 40.99364 -82.07588 38883 ft 523 kts 141°
2026-05-06 02:10 40.94246 -82.00742 38888 ft 523 kts 141°
2026-05-06 02:10 40.89128 -81.93904 38892 ft 523 kts 141°
2026-05-06 02:11 40.84004 -81.87078 38865 ft 522 kts 142°
2026-05-06 02:11 40.78890 -81.80284 38879 ft 522 kts 142°
2026-05-06 02:12 40.73764 -81.73503 38865 ft 522 kts 142°
2026-05-06 02:12 40.68639 -81.66725 38860 ft 521 kts 142°
2026-05-06 02:13 40.63524 -81.59971 38850 ft 521 kts 141°
2026-05-06 02:13 40.58400 -81.53228 38849 ft 521 kts 142°
2026-05-06 02:14 40.53275 -81.46499 38866 ft 520 kts 142°
2026-05-06 02:14 40.48150 -81.39776 38875 ft 520 kts 142°
2026-05-06 02:15 40.43024 -81.33073 38878 ft 520 kts 142°
2026-05-06 02:15 40.37892 -81.26385 38867 ft 520 kts 141°
2026-05-06 02:16 40.32760 -81.19697 38868 ft 520 kts 141°
2026-05-06 02:16 40.27621 -81.13023 38865 ft 520 kts 142°
2026-05-06 02:17 40.22486 -81.06373 38865 ft 519 kts 142°
2026-05-06 02:17 40.17343 -80.99716 38867 ft 519 kts 142°
2026-05-06 02:18 40.12206 -80.93087 38868 ft 519 kts 142°
2026-05-06 02:18 40.07066 -80.86473 38835 ft 519 kts 141°
2026-05-06 02:19 40.01954 -80.79898 38849 ft 519 kts 141°
2026-05-06 02:19 39.96926 -80.73121 38858 ft 520 kts 139°
2026-05-06 02:20 39.91902 -80.66178 38540 ft 531 kts 139°
2026-05-06 02:20 39.89375 -80.62707 38259 ft 526 kts 139°
2026-05-06 02:20 39.86850 -80.59260 37939 ft 523 kts 140°
2026-05-06 02:21 39.84338 -80.55858 37668 ft 522 kts 140°
2026-05-06 02:21 39.81823 -80.52469 37397 ft 519 kts 139°
2026-05-06 02:21 39.79312 -80.49095 37141 ft 519 kts 139°
2026-05-06 02:21 39.76811 -80.45739 36878 ft 516 kts 139°
2026-05-06 02:22 39.74300 -80.42369 36627 ft 524 kts 139°
2026-05-06 02:22 39.71753 -80.38953 36370 ft 527 kts 139°
2026-05-06 02:22 39.69210 -80.35537 36120 ft 527 kts 139°
2026-05-06 02:22 39.66662 -80.32113 35872 ft 526 kts 139°
2026-05-06 02:23 39.64128 -80.28709 35638 ft 524 kts 139°
2026-05-06 02:23 39.61597 -80.25308 35329 ft 522 kts 139°
2026-05-06 02:23 39.59077 -80.21922 35111 ft 521 kts 139°
2026-05-06 02:23 39.56567 -80.18557 34872 ft 519 kts 139°
2026-05-06 02:24 39.54052 -80.15194 34635 ft 517 kts 139°
2026-05-06 02:24 39.51548 -80.11859 34400 ft 515 kts 139°
2026-05-06 02:24 39.49043 -80.08537 34166 ft 514 kts 139°
2026-05-06 02:24 39.46552 -80.05238 33931 ft 512 kts 139°
2026-05-06 02:25 39.44068 -80.01948 33668 ft 510 kts 139°
2026-05-06 02:25 39.41600 -79.98676 33407 ft 506 kts 139°
2026-05-06 02:25 39.39154 -79.95428 33142 ft 501 kts 139°
2026-05-06 02:25 39.36740 -79.92220 32673 ft 497 kts 139°
2026-05-06 02:26 39.34329 -79.89021 32088 ft 494 kts 138°
2026-05-06 02:26 39.32091 -79.85655 31469 ft 497 kts 128°
2026-05-06 02:26 39.30353 -79.81804 31007 ft 494 kts 115°
2026-05-06 02:26 39.29230 -79.77672 30831 ft 482 kts 103°
2026-05-06 02:27 39.28683 -79.73470 30719 ft 468 kts 95°
2026-05-06 02:27 39.28344 -79.69331 30489 ft 461 kts 95°
2026-05-06 02:27 39.28013 -79.65239 30250 ft 456 kts 95°
2026-05-06 02:27 39.27689 -79.61192 30011 ft 451 kts 95°
2026-05-06 02:28 39.27370 -79.57180 29743 ft 448 kts 95°
2026-05-06 02:28 39.27056 -79.53201 29465 ft 446 kts 95°
2026-05-06 02:28 39.26740 -79.49226 29189 ft 444 kts 95°
2026-05-06 02:28 39.26422 -79.45278 28919 ft 442 kts 96°
2026-05-06 02:29 39.26102 -79.41337 28641 ft 440 kts 96°
2026-05-06 02:29 39.25779 -79.37425 28373 ft 437 kts 96°
2026-05-06 02:29 39.25456 -79.33538 28106 ft 435 kts 96°
2026-05-06 02:29 39.25136 -79.29661 27839 ft 433 kts 96°
2026-05-06 02:30 39.24818 -79.25807 27594 ft 431 kts 96°
2026-05-06 02:30 39.24499 -79.21966 27327 ft 430 kts 97°
2026-05-06 02:30 39.24176 -79.18150 27068 ft 428 kts 97°
2026-05-06 02:30 39.23848 -79.14331 26727 ft 427 kts 97°
2026-05-06 02:31 39.23527 -79.10583 26238 ft 424 kts 97°
2026-05-06 02:31 39.23198 -79.06761 25764 ft 422 kts 97°
2026-05-06 02:31 39.22873 -79.03021 25312 ft 419 kts 97°
2026-05-06 02:31 39.22551 -78.99304 24900 ft 415 kts 97°
2026-05-06 02:32 39.22232 -78.95606 24402 ft 414 kts 97°
2026-05-06 02:32 39.21902 -78.91944 24032 ft 408 kts 98°
2026-05-06 02:32 39.21556 -78.88309 23579 ft 407 kts 98°
2026-05-06 02:32 39.21204 -78.84710 23142 ft 403 kts 99°
2026-05-06 02:33 39.20850 -78.81140 22660 ft 400 kts 99°
2026-05-06 02:33 39.20616 -78.78793 22379 ft 398 kts 99°
2026-05-06 02:33 39.19805 -78.70610 21292 ft 392 kts 99°
2026-05-06 02:34 39.19463 -78.67124 20869 ft 389 kts 99°
2026-05-06 02:34 39.19126 -78.63641 20519 ft 384 kts 99°
2026-05-06 02:34 39.18794 -78.60238 20084 ft 382 kts 99°
2026-05-06 02:34 39.18458 -78.56846 19679 ft 380 kts 99°
2026-05-06 02:35 39.18123 -78.53489 19294 ft 377 kts 100°
2026-05-06 02:35 39.17794 -78.50199 18915 ft 375 kts 100°
2026-05-06 02:35 39.17458 -78.46875 18441 ft 372 kts 101°
2026-05-06 02:35 39.17125 -78.43588 17998 ft 367 kts 101°
2026-05-06 02:36 39.16799 -78.40350 18020 ft 364 kts 100°
2026-05-06 02:36 39.16444 -78.37112 18029 ft 364 kts 105°
2026-05-06 02:36 39.15781 -78.33989 18023 ft 360 kts 112°
2026-05-06 02:36 39.15018 -78.30932 17361 ft 358 kts 112°
2026-05-06 02:37 39.14262 -78.27890 16623 ft 355 kts 112°
2026-05-06 02:37 39.13506 -78.24841 15945 ft 350 kts 112°
2026-05-06 02:37 39.12773 -78.21882 15348 ft 344 kts 112°
2026-05-06 02:37 39.12053 -78.18981 15081 ft 339 kts 113°
2026-05-06 02:38 39.11330 -78.16091 14898 ft 338 kts 113°
2026-05-06 02:38 39.10610 -78.13215 14685 ft 336 kts 113°
2026-05-06 02:38 39.10136 -78.11320 14511 ft 335 kts 113°
2026-05-06 02:38 39.09192 -78.07563 14154 ft 332 kts 113°
2026-05-06 02:39 39.08475 -78.04747 13867 ft 330 kts 114°
2026-05-06 02:39 39.07757 -78.01950 13579 ft 328 kts 114°
2026-05-06 02:39 39.07044 -77.99176 13292 ft 326 kts 114°
2026-05-06 02:39 39.06331 -77.96406 13020 ft 325 kts 113°
2026-05-06 02:40 39.05621 -77.93646 12740 ft 324 kts 112°
2026-05-06 02:40 39.05144 -77.91786 12557 ft 324 kts 112°
2026-05-06 02:40 39.04448 -77.89080 12296 ft 322 kts 112°
2026-05-06 02:40 39.03747 -77.86353 12028 ft 320 kts 112°
2026-05-06 02:41 39.03051 -77.83644 11765 ft 318 kts 112°
2026-05-06 02:41 39.02357 -77.80953 11521 ft 316 kts 112°
2026-05-06 02:41 39.01665 -77.78276 11265 ft 315 kts 112°
2026-05-06 02:41 39.00975 -77.75614 11008 ft 314 kts 112°
2026-05-06 02:42 39.00289 -77.72959 10746 ft 312 kts 112°
2026-05-06 02:42 38.99617 -77.70364 10495 ft 311 kts 111°
2026-05-06 02:42 38.98922 -77.67690 10235 ft 309 kts 111°
2026-05-06 02:42 38.98243 -77.65074 9987 ft 308 kts 112°
2026-05-06 02:43 38.97526 -77.62484 9577 ft 308 kts 113°
2026-05-06 02:43 38.96784 -77.59947 9364 ft 299 kts 114°
2026-05-06 02:43 38.96046 -77.57474 9026 ft 295 kts 115°
2026-05-06 02:43 38.95310 -77.55026 8651 ft 293 kts 114°
2026-05-06 02:44 38.94873 -77.52464 8274 ft 296 kts 97°
2026-05-06 02:44 38.95039 -77.49786 7877 ft 300 kts 78°
2026-05-06 02:44 38.95755 -77.47306 7451 ft 301 kts 68°
2026-05-06 02:44 38.96603 -77.44805 7026 ft 301 kts 69°
2026-05-06 02:45 38.97435 -77.42331 6605 ft 302 kts 69°
2026-05-06 02:45 38.98258 -77.39870 6339 ft 296 kts 69°
2026-05-06 02:45 38.99051 -77.37491 5994 ft 292 kts 70°
2026-05-06 02:45 38.99843 -77.35107 5754 ft 285 kts 70°
2026-05-06 02:46 39.00608 -77.32811 5625 ft 274 kts 70°
2026-05-06 02:46 39.01347 -77.30609 5466 ft 265 kts 70°
2026-05-06 02:46 39.02073 -77.28450 5156 ft 262 kts 71°
2026-05-06 02:46 39.02532 -77.26205 5008 ft 252 kts 92°
2026-05-06 02:47 39.02391 -77.23996 5012 ft 245 kts 113°
2026-05-06 02:47 39.01737 -77.22042 5003 ft 233 kts 133°
2026-05-06 02:47 39.00700 -77.20505 5003 ft 225 kts 147°
2026-05-06 02:47 38.99531 -77.19117 4467 ft 231 kts 147°
2026-05-06 02:48 38.98339 -77.17700 3853 ft 235 kts 147°
2026-05-06 02:48 38.97129 -77.16265 3267 ft 237 kts 147°
2026-05-06 02:48 38.95952 -77.14856 3054 ft 223 kts 147°
2026-05-06 02:48 38.94838 -77.13519 3054 ft 216 kts 146°
2026-05-06 02:49 38.93733 -77.12213 2781 ft 215 kts 147°
2026-05-06 02:49 38.92631 -77.10967 2296 ft 207 kts 145°
2026-05-06 02:49 38.91704 -77.09663 1939 ft 192 kts 140°
2026-05-06 02:49 38.90874 -77.08347 1500 ft 184 kts 140°
2026-05-06 02:50 38.90100 -77.07077 1130 ft 176 kts 138°
2026-05-06 02:50 38.89308 -77.05976 887 ft 160 kts 140°
2026-05-06 02:50 38.88515 -77.05054 651 ft 148 kts 142°
2026-05-06 02:50 38.87734 -77.04260 419 ft 138 kts 157°
2026-05-06 02:51 38.86851 -77.03945 218 ft 129 kts 176°
2026-05-06 02:51 38.85972 -77.03857 45 ft 124 kts 178°
2026-05-06 02:51 38.85217 -77.03782 24 ft 78 kts 175°
2026-05-06 02:51 38.84919 -77.03766 24 ft 18 kts 196°
2026-05-06 02:52 38.84877 -77.03885 24 ft 4 kts 268°
2026-05-06 02:52 38.84877 -77.03888 24 ft 0 kts 268°
2026-05-06 02:52 38.84876 -77.03900 24 ft 4 kts 268°
2026-05-06 02:53 38.84868 -77.03937 24 ft 8 kts 229°
2026-05-06 02:53 38.84802 -77.03949 24 ft 11 kts 184°
2026-05-06 02:53 38.84720 -77.03979 27 ft 14 kts 207°
2026-05-06 02:53 38.84629 -77.04042 26 ft 16 kts 216°
2026-05-06 02:54 38.84579 -77.04177 24 ft 18 kts 258°
2026-05-06 02:54 38.84567 -77.04317 24 ft 16 kts 285°
2026-05-06 02:54 38.84620 -77.04383 26 ft 5 kts 355°
2026-05-06 02:54 38.84637 -77.04355 26 ft 3 kts 61°
2026-05-06 02:55 38.84646 -77.04333 24 ft 3 kts 61°
2026-05-06 02:55 38.84650 -77.04323 27 ft 0 kts 61°